Location: Az?znagar
(16.8373°N, 80.5091°E)
Time: 16:40:27
(UTC+00:00)

CZ-4C R/B - Pass Details

Date: 08 July 2022
Orbit: 395 x 462 km, 97.7° (Epoch: 09 August)

Event Time Altitude Azimuth Distance (km) Brightness Sun altitude
Rises 13:46:20 0° 13° (NNE) 2,467 6.8 -7.5°
Reaches altitude 10° 13:48:21 10° 14° (NNE) 1,600 5.9 -7.9°
Maximum altitude 13:51:47 80° 100° (E) 473 2.9 -8.7°
Drops below altitude 10° 13:55:15 10° 189° (S) 1,611 5.5 -9.4°
Sets 13:57:18 0° 190° (S) 2,485 6.5 -9.8°
